Date String (YYYY-MM-DD hh:mm:ss) UTC,Instrument flags,Ambient pressure (hPa),Sample flow (lpm),Bypass flow (lpm),Sample temperature (°C),Ambient temperature (°C),ASC tube jacket temperature (°C),LED temperature (°C),Box temperature (°C),Sample RH (%),Span deviation,Mass concentration (μg/m³),Mass concentration (μg/m³),Mass concentration (μg/m³)
DateTimeUTC,F1_M11,P_M11,Q1_M11,Q2_M11,T1_M11,T2_M11,T3_M11,T4_M11,T5_M11,U1_M11,ZSPAN_M11,X0_M11,X2_M11,X1_M11
2022-01-15 06:00:00,,0836.2,4.99,0.00,21.6,21.0,00.0,30.7,23.2,10.1,0000.0,0005.05,0002.08,0001.86
2022-01-15 06:01:00,,0836.2,4.99,0.00,21.6,21.0,00.0,30.7,23.2,10.0,0000.0,0005.46,0002.08,0001.85
2022-01-15 06:02:00,,0836.2,4.99,0.00,21.6,21.0,00.0,30.7,23.2,10.1,0000.0,0005.58,0002.12,0001.85
2022-01-15 06:03:00,,0836.2,4.99,0.00,21.6,21.0,00.0,30.7,23.2,10.1,0000.0,0005.63,0002.14,0001.87
2022-01-15 06:04:00,,0836.2,5.00,0.00,21.6,21.0,00.0,30.7,23.2,10.2,0000.0,0005.59,0002.13,0001.88
2022-01-15 06:05:00,,0836.2,5.01,0.00,21.6,21.0,00.0,30.7,23.2,10.2,0000.0,0005.63,0002.19,0001.91
2022-01-15 06:06:00,,0836.2,4.99,0.00,21.6,21.4,00.0,30.7,23.3,10.2,0000.0,0004.87,0002.20,0001.93
2022-01-15 06:07:00,,0836.2,5.00,0.00,21.7,22.2,00.0,30.7,23.6,10.1,0000.0,0004.62,0002.22,0001.95
2022-01-15 06:08:00,,0836.2,5.01,0.00,21.9,23.0,00.0,30.8,23.9,10.0,0000.0,0004.57,0002.25,0001.98
2022-01-15 06:09:00,,0836.1,5.00,0.00,22.0,22.9,00.0,30.8,24.0,10.0,0000.0,0003.84,0002.29,0002.01
2022-01-15 06:10:00,,0836.2,5.00,0.00,22.0,22.6,00.0,30.8,23.9,09.9,0000.0,0004.33,0002.35,0002.04
2022-01-15 06:11:00,,0836.1,5.01,0.00,22.0,22.3,00.0,30.8,23.8,09.8,0000.0,0004.43,0002.41,0002.03
2022-01-15 06:12:00,,0836.2,4.99,0.00,22.0,22.1,00.0,30.8,23.7,09.8,0000.0,0003.92,0002.43,0002.04
2022-01-15 06:13:00,,0836.2,5.01,0.00,21.9,21.9,00.0,30.9,23.7,10.0,0000.0,0003.95,0002.46,0002.07
2022-01-15 06:14:00,,0836.2,5.01,0.00,21.9,21.8,00.0,30.9,23.7,09.9,0000.0,0003.96,0002.48,0002.07
2022-01-15 06:15:00,,0836.2,4.99,0.00,21.9,21.7,00.0,30.9,23.7,09.9,0000.0,0003.96,0002.48,0002.08
2022-01-15 06:16:00,,0836.2,5.00,0.00,21.9,21.6,00.0,30.9,23.7,10.0,0000.0,0003.87,0002.46,0002.08
2022-01-15 06:17:00,,0836.2,5.00,0.00,21.9,21.5,00.0,30.9,23.7,10.0,0000.0,0004.03,0002.48,0002.08
2022-01-15 06:18:00,,0836.2,5.00,0.00,21.9,21.5,00.0,30.9,23.6,09.9,0000.0,0004.13,0002.49,0002.08
2022-01-15 06:19:00,,0836.2,5.00,0.00,21.9,21.4,00.0,30.9,23.6,10.0,0000.0,0004.21,0002.52,0002.08
2022-01-15 06:20:00,,0836.2,5.01,0.00,21.9,21.4,00.0,30.9,23.6,09.9,0000.0,0004.07,0002.48,0002.08
2022-01-15 06:21:00,,0836.1,5.00,0.00,21.9,21.4,00.0,30.9,23.6,10.0,0000.0,0003.61,0002.45,0002.09
2022-01-15 06:22:00,,0836.1,5.00,0.00,21.9,21.4,00.0,30.9,23.6,10.1,0000.0,0003.47,0002.48,0002.14
2022-01-15 06:23:00,,0836.2,5.00,0.00,21.9,21.3,00.0,30.9,23.6,10.1,0000.0,0003.50,0002.52,0002.19
2022-01-15 06:24:00,,0836.2,5.01,0.00,21.8,21.3,00.0,30.9,23.5,10.2,0000.0,0003.38,0002.50,0002.23
2022-01-15 06:25:00,,0836.2,4.99,0.00,21.8,21.3,00.0,30.8,23.5,10.2,0000.0,0003.32,0002.51,0002.27
2022-01-15 06:26:00,,0836.2,5.00,0.00,21.8,21.2,00.0,30.8,23.5,10.2,0000.0,0003.39,0002.57,0002.33
2022-01-15 06:27:00,,0836.2,5.00,0.00,21.8,21.2,00.0,30.8,23.5,10.2,0000.0,0003.41,0002.60,0002.36
2022-01-15 06:28:00,,0836.1,4.99,0.00,21.8,21.2,00.0,30.8,23.5,10.2,0000.0,0003.33,0002.63,0002.39
2022-01-15 06:29:00,,0836.0,5.01,0.00,21.8,21.1,00.0,30.8,23.5,10.2,0000.0,0003.36,0002.70,0002.45
2022-01-15 06:30:00,,0836.0,5.01,0.00,21.8,21.2,00.0,30.8,23.4,10.3,0000.0,0003.43,0002.76,0002.51
2022-01-15 06:31:00,,0836.1,4.99,0.00,21.8,21.7,00.0,30.8,23.6,10.3,0000.0,0003.55,0002.84,0002.58
2022-01-15 06:32:00,,0836.2,5.00,0.00,22.0,22.6,00.0,30.9,23.9,10.3,0000.0,0003.66,0002.92,0002.66
2022-01-15 06:33:00,,0836.2,5.00,0.00,22.1,22.9,00.0,30.9,24.1,10.3,0000.0,0003.74,0002.98,0002.73
2022-01-15 06:34:00,,0836.2,5.01,0.00,22.1,22.6,00.0,30.9,24.0,10.3,0000.0,0003.85,0003.05,0002.79
2022-01-15 06:35:00,,0836.2,5.01,0.00,22.1,22.3,00.0,30.9,23.9,10.3,0000.0,0004.96,0003.11,0002.83
2022-01-15 06:36:00,,0836.2,5.00,0.00,22.0,22.0,00.0,31.0,23.8,10.4,0000.0,0006.12,0003.14,0002.86
2022-01-15 06:37:00,,0836.2,5.00,0.00,22.0,21.8,00.0,30.9,23.7,10.5,0000.0,0006.45,0003.17,0002.89
2022-01-15 06:38:00,,0836.1,5.00,0.00,21.9,21.6,00.0,30.9,23.6,10.5,0000.0,0007.18,0003.22,0002.94
2022-01-15 06:39:00,,0836.2,5.00,0.00,21.9,21.5,00.0,30.9,23.6,10.6,0000.0,0007.73,0003.27,0003.01
2022-01-15 06:40:00,,0836.2,5.00,0.00,21.9,21.4,00.0,30.9,23.5,10.6,0000.0,0007.77,0003.29,0003.04
2022-01-15 06:41:00,,0836.2,5.00,0.00,21.8,21.3,00.0,30.9,23.4,10.6,0000.0,0007.83,0003.30,0003.06
2022-01-15 06:42:00,,0836.2,5.01,0.00,21.8,21.2,00.0,30.9,23.3,10.7,0000.0,0007.86,0003.32,0003.08
2022-01-15 06:43:00,,0836.2,5.00,0.00,21.7,21.1,00.0,30.9,23.3,10.7,0000.0,0007.92,0003.35,0003.10
2022-01-15 06:44:00,,0836.2,4.99,0.00,21.7,21.0,00.0,30.8,23.3,10.7,0000.0,0007.91,0003.35,0003.11
2022-01-15 06:45:00,,0836.2,5.00,0.00,21.7,21.0,00.0,30.8,23.3,10.8,0000.0,0007.93,0003.36,0003.11
2022-01-15 06:46:00,,0836.2,5.00,0.00,21.6,20.9,00.0,30.8,23.2,10.8,0000.0,0007.41,0003.38,0003.13
2022-01-15 06:47:00,,0836.2,5.00,0.00,21.6,20.9,00.0,30.8,23.2,10.8,0000.0,0006.68,0003.42,0003.16
2022-01-15 06:48:00,,0836.2,5.01,0.00,21.7,21.5,00.0,30.8,23.4,10.8,0000.0,0006.36,0003.46,0003.18
2022-01-15 06:49:00,,0836.1,5.00,0.00,21.8,22.3,00.0,30.8,23.7,10.8,0000.0,0006.09,0003.46,0003.20
2022-01-15 06:50:00,,0836.2,5.00,0.00,22.0,22.7,00.0,30.9,23.9,10.7,0000.0,0005.19,0003.49,0003.23
2022-01-15 06:51:00,,0836.2,4.99,0.00,22.0,22.4,00.0,30.9,23.8,10.7,0000.0,0005.18,0003.51,0003.25
2022-01-15 06:52:00,,0836.3,5.00,0.00,21.9,22.1,00.0,30.9,23.7,10.8,0000.0,0005.64,0003.54,0003.29
2022-01-15 06:53:00,,0836.3,5.00,0.00,21.9,21.8,00.0,30.9,23.6,10.9,0000.0,0006.97,0003.56,0003.31
2022-01-15 06:54:00,,0836.2,5.01,0.00,21.8,21.6,00.0,30.9,23.5,11.0,0000.0,0007.79,0003.58,0003.34
2022-01-15 06:55:00,,0836.2,4.99,0.00,21.8,21.4,00.0,30.9,23.3,11.0,0000.0,0007.82,0003.61,0003.37
2022-01-15 06:56:00,,0836.2,4.99,0.00,21.7,21.1,00.0,30.8,23.2,11.1,0000.0,0007.92,0003.66,0003.40
2022-01-15 06:57:00,,0836.2,5.01,0.00,21.5,20.9,00.0,30.8,23.0,11.1,0000.0,0007.95,0003.68,0003.42
2022-01-15 06:58:00,,0836.2,5.01,0.00,21.4,20.7,00.0,30.7,22.8,11.1,0000.0,0007.99,0003.69,0003.42
2022-01-15 06:59:00,,0836.3,4.99,0.00,21.4,20.7,00.0,30.7,22.8,11.2,0000.0,0007.98,0003.67,0003.43
